Sachse's Hourly Summary for Wednesday, July 11, 2018
Hour Temp
(f)
RH
(%)
Solar Rad.
(MJ/m2)
Rainfall
(in)
Wind
(mph)
7/11/2018 12:00 AM 78 74 0 0 0
7/11/2018 1:00 AM 77 75 0 0 0
7/11/2018 2:00 AM 74 78 0 0 0.14
7/11/2018 3:00 AM 74 91 0 0 0
7/11/2018 4:00 AM 76 87 0 0 0.26
7/11/2018 5:00 AM 75 85 0 0 0.01
7/11/2018 6:00 AM 75 85 0 0 0
7/11/2018 7:00 AM 76 85 0.03 0 0.14
7/11/2018 8:00 AM 76 84 0.17 0 0
7/11/2018 9:00 AM 78 81 0.4 0 2.13
7/11/2018 10:00 AM 80 69 1 0 2.74
7/11/2018 11:00 AM 84 56 2.13 0 3.08
7/11/2018 12:00 PM 88 53 2.4 0 1.97
7/11/2018 1:00 PM 91 42 2.98 0 3.87
7/11/2018 2:00 PM 93 39 2.64 0 4.07
7/11/2018 3:00 PM 94 31 2.27 0 4.22
7/11/2018 4:00 PM 95 31 1.88 0 3.55
7/11/2018 5:00 PM 94 36 1.89 0 7
7/11/2018 6:00 PM 93 38 0.71 0 5.42
7/11/2018 7:00 PM 89 40 0.43 0 5.4
7/11/2018 8:00 PM 87 56 0.21 0 4.11
7/11/2018 9:00 PM 85 58 0.04 0 3.54
7/11/2018 10:00 PM 83 63 0 0 3.88
7/11/2018 11:00 PM 81 64 0 0 3.12
Data Summary 83 62 19.18 0.00 2.44